Location: Lucerne Valley
(34.4439°N, 116.9669°E)
Time: 18:58:19
(UTC-07:00)

Envisat - Pass Details

Date: 13 October 2017
Orbit: 764 x 766 km, 98.2° (Epoch: 23 October)

Event Time Altitude Azimuth Distance (km) Brightness Sun altitude
Exits shadow 04:35:15 25° 22° (NNE) 1,498 4.3 -24.4°
Drops below altitude 10° 04:37:39 10° 4° (N) 2,305 5.5 -24.9°
Sets 04:40:05 0° 357° (N) 3,234 6.4 -25.4°
